Weather History for KUUU - August, 2014

Change the Weather History Date:

Tuesday, August 19, 2014

  Actual Average Record
Temperature  
Mean Temperature 65 °F -  
Max Temperature 77 °F 77 °F 89 °F (2002)
Min Temperature 55 °F 61 °F 48 °F (1982)
Growing Degree Days 15 (Base 50)    
Moisture  
Dew Point 52 °F    
Average Humidity 63    
Maximum Humidity 90    
Minimum Humidity 43    
Precipitation  
Precipitation 0.00 in - - ()
Sea Level Pressure  
Sea Level Pressure 29.92 in    
Wind  
Wind Speed 4 mph (NNW)    
Max Wind Speed 12 mph    
Max Gust Speed -    
Visibility 10 miles    
Events      
Averages and records for this station are not official NWS values.
T = Trace of Precipitation, MM = Missing Value Source: NWS Daily Summary

Daily Weather History Graph

Daily Weather History Graph

Search for Another Location

Airport or City:

Trip Planner

Search our weather history database for the weather conditions in past years. The results will help you decide how hot, cold, wet, or windy it might be!

Date:

Astronomy

Aug. 19, 2014 Rise Set
Actual Time 5:57 AM EDT 7:38 PM EDT
Civil Twilight 5:28 AM EDT 8:08 PM EDT
Nautical Twilight 4:52 AM EDT 8:43 PM EDT
Astronomical Twilight 4:14 AM EDT 9:21 PM EDT
Moon 12:46 AM EDT (8/19) 3:34 PM EDT (8/19)
Length of Visible Light 14h 39m
Length of Day
13h 40m
Waning Crescent, 29% of the Moon is Illuminated
Aug 19
Waning Crescent
Aug 25
New
Sep 2
First Quarter
Sep 8
Full
Sep 15
Last Quarter

Hourly Weather History & Observations

Time (EDT) Temp. Dew Point Humidity Pressure Visibility Wind Dir Wind Speed Gust Speed Precip Events Conditions
12:53 AM 63.0 °F 51.1 °F 65% 29.87 in 10.0 mi NNE 5.8 mph - N/A   Clear
1:53 AM 61.0 °F 50.0 °F 67% 29.87 in 10.0 mi North 5.8 mph - N/A   Clear
2:53 AM 63.0 °F 50.0 °F 63% 29.87 in 10.0 mi North 5.8 mph - N/A   Clear
3:53 AM 59.0 °F 50.0 °F 72% 29.88 in 10.0 mi North 4.6 mph - N/A   Clear
4:53 AM 55.0 °F 48.9 °F 80% 29.88 in 10.0 mi Calm Calm - N/A   Clear
5:53 AM 55.0 °F 50.0 °F 83% 29.90 in 10.0 mi Calm Calm - N/A   Clear
6:53 AM 57.9 °F 52.0 °F 81% 29.91 in 10.0 mi Calm Calm - N/A   Clear
7:53 AM 64.0 °F 52.0 °F 65% 29.92 in 10.0 mi North 4.6 mph - N/A   Clear
8:53 AM 66.9 °F 52.0 °F 59% 29.93 in 10.0 mi NNE 5.8 mph - N/A   Clear
9:53 AM 70.0 °F 52.0 °F 53% 29.93 in 10.0 mi Variable 3.5 mph - N/A   Clear
10:53 AM 72.0 °F 50.0 °F 46% 29.94 in 10.0 mi Variable 4.6 mph - N/A   Clear
11:53 AM 72.0 °F 51.1 °F 48% 29.94 in 10.0 mi Variable 5.8 mph - N/A   Clear
12:53 PM 73.9 °F 53.1 °F 48% 29.92 in 10.0 mi WNW 4.6 mph - N/A   Clear
1:53 PM 75.9 °F 54.0 °F 46% 29.92 in 10.0 mi Variable 3.5 mph - N/A   Clear
2:53 PM 75.9 °F 53.1 °F 45% 29.91 in 10.0 mi South 11.5 mph - N/A   Clear
3:53 PM 73.9 °F 50.0 °F 43% 29.91 in 10.0 mi SSW 6.9 mph - N/A   Clear
4:53 PM 73.9 °F 51.1 °F 45% 29.91 in 10.0 mi Variable 5.8 mph - N/A   Clear
5:53 PM 72.0 °F 51.1 °F 48% 29.92 in 10.0 mi SSW 6.9 mph - N/A   Clear
6:53 PM 70.0 °F 52.0 °F 53% 29.91 in 10.0 mi SSW 5.8 mph - N/A   Clear
7:53 PM 68.0 °F 54.0 °F 61% 29.92 in 10.0 mi SSW 4.6 mph - N/A   Clear
8:53 PM 64.0 °F 57.0 °F 78% 29.94 in 10.0 mi East 5.8 mph - N/A   Clear
9:53 PM 62.1 °F 57.9 °F 86% 29.94 in 10.0 mi Calm Calm - N/A   Clear
10:53 PM 62.1 °F 59.0 °F 90% 29.96 in 10.0 mi Calm Calm - N/A   Clear
11:53 PM 61.0 °F 57.9 °F 90% 29.96 in 10.0 mi Calm Calm - N/A   Clear